Regional Weather Roundup
Issued by NWS Boston, MA

Home | Current Version | Previous Version | Text Only | Print | Product List | Glossary On
Versions: 1 2 3 4 5 6 7 8 9 10 11 12 13 14 15 16 17 18 19 20 21 22 23 24 25 26 27 28 29 30 31 32 33 34 35 36 37 38 39 40 41 42 43 44 45 46 47
000
ASUS41 KBOX 280510
RWRBOX

REGIONAL WEATHER ROUNDUP
NATIONAL WEATHER SERVICE TAUNTON MA
100 AM EDT THU AUG 28 2014

NOTE:  "FAIR" INDICATES FEW OR NO CLOUDS BELOW 12,000 FEET WITH NO
SIGNIFICANT WEATHER AND/OR OBSTRUCTIONS TO VISIBILITY.  THE FOLLOWING
OBSERVATION LOCATIONS DO NOT REPORT PRESENT WEATHER...PROVINCETOWN...
SMITHFIELD...BLOCK ISLAND...KEENE...AND OXFORD.

MAZALL-280600-
EASTERN MASSACHUSETTS

CITY           SKY/WX    TMP DP  RH WIND       PRES   REMARKS
BOSTON         MOCLDY    75  69  81 W8        29.83
BEVERLY        CLOUDY    72  69  90 W6        29.82F
LAWRENCE       MOCLDY    74  66  76 NW5       29.86S
BEDFORD        MOCLDY    70  70 100 W7        29.83S
BLUE HILL        N/A     72  68  87 W9        29.85F
NORWOOD        CLOUDY    71  69  93 CALM      29.84F
MARSHFIELD     MOCLDY    73  64  73 W6        29.84F
PLYMOUTH       MOCLDY    69  60  73 SW5       29.84F
TAUNTON        MOCLDY    70  63  78 CALM      29.83F
NEW BEDFORD    MOCLDY    69  63  81 CALM      29.83F
$$

MAZALL-280600-
CAPE COD AND THE ISLANDS

CITY           SKY/WX    TMP DP  RH WIND       PRES   REMARKS
FALMOUTH       CLOUDY    72  59  64 W7        29.85F
HYANNIS        MOCLDY    72  59  63 SW8       29.83F
CHATHAM        MOCLDY    71  65  81 SW6       29.85F
PROVINCETOWN   CLOUDY    70  63  78 SW9       29.82F
NANTUCKET      FOG       66  66 100 S6        29.85F VSB 1/4
MARTHAS VNYRD  PTCLDY    65  64  97 S3        29.85F
$$

MAZALL-280600-
CENTRAL AND WESTERN MASSACHUSETTS

CITY           SKY/WX    TMP DP  RH WIND       PRES   REMARKS
WORCESTER      PTCLDY    69  65  86 W10       29.89S
FITCHBURG      MOCLDY    74  66  76 NW6       29.86S
ORANGE         MOCLDY    69  65  86 NE3       29.88S
SPRINGFIELD    MOCLDY    67  64  92 SE1       29.86F
WESTFIELD      MOCLDY    69  61  75 CALM      29.88F
NORTH ADAMS    CLOUDY    67  60  78 SW5       29.92R
PITTSFIELD     PTCLDY    64  55  72 W15       29.93R
$$

RIZALL-280600-
RHODE ISLAND

CITY           SKY/WX    TMP DP  RH WIND       PRES   REMARKS
PROVIDENCE     CLOUDY    73  63  70 W5        29.86F
NEWPORT        PTCLDY    71  64  78 CALM      29.85F
BLOCK ISLAND   PTCLDY    72  64  78 W10       29.85F
SMITHFIELD     MOCLDY    70  61  73 CALM      29.86F
WESTERLY       MOCLDY    71  66  84 W3        29.86F
$$

CTZALL-280600-
CONNECTICUT

CITY           SKY/WX    TMP DP  RH WIND       PRES   REMARKS
BRADLEY INTL   MOCLDY    71  61  70 N6        29.87F
HARTFORD       MOCLDY    74  60  61 N9        29.87S
BRIDGEPORT     MOCLDY    73  69  87 N6        29.87S
DANBURY        MOCLDY    70  67  90 VRB5      29.92R
GROTON         MOCLDY    71  67  87 W5        29.85F
NEW HAVEN      PTCLDY    73  69  87 N3        29.87F
CHESTER        FAIR      72  66  83 CALM      29.88F
MERIDEN        MOCLDY    72  65  78 CALM      29.88S
WILLIMANTIC    PTCLDY    71  68  90 CALM      29.87S
OXFORD         MOCLDY    68  63  83 N7        29.92F
$$

MEZ002-015-021-024-NHZ003-005-008-011-012-014-VTZ005-008-280600-
NORTHERN NEW ENGLAND

CITY           SKY/WX    TMP DP  RH WIND       PRES   REMARKS
PORTLAND ME    CLOUDY    69  64  84 N6        29.83S
BANGOR ME      CLOUDY    67  60  78 CALM      29.83F
CONCORD NH     CLOUDY    69  61  75 N9        29.86S
MANCHESTER NH  CLOUDY    74  64  71 NW7       29.84R
NASHUA NH      MOCLDY    73  67  81 CALM      29.86R
PORTSMOUTH NH  MOCLDY    72  66  81 W5        29.83R
JAFFREY NH     CLOUDY    69  63  81 VRB3      29.90S
KEENE NH       CLOUDY    70  59  68 CALM      29.89F
BURLINGTON VT  PTCLDY    67  58  72 CALM      29.91F
MT. WASHINGTON FOG       45  45 100 W33         N/A  VSB 1/8
$$

NYZ052-076-280600-
EASTERN NEW YORK

CITY           SKY/WX    TMP DP  RH WIND       PRES   REMARKS
ALBANY         PTCLDY    67  57  70 W9        29.93R
NEW YORK CITY  MOCLDY    77  67  71 N5        29.86S
$$

ANZALL-280600-
MARINE OBSERVATIONS

STATION/POSITION TIME  TEMP    WIND        PRES    VSBY  WAVE
                       AIR SEA DIR/SP/G                  HT/PER
                 (UTC) (F)     (DEG/KT/KT) (MB)    (MI)  (FT/S)
BOSTON BUOY      0450   71 69  260/  8/ 10 1010.0F         2/13
BUZZARDS BAY     0400          240/  9/ 11 1011.9F
NANTUCKET SOUND  0450   69 71  220/ 10/ 10 1010.5F         1/15
MASS BAY-STELLWA 0404   71 68  250/  8/ 10   N/A    1 7/8  2/ 8
ISLE OF SHOALS   0400   74     240/ 11/ 11 1009.3S
S OF BLOCK IS    0408      70                N/A           5/14
$$

......................KEY.........................
  SKY/WX - SKY CONDITION/PRESENT WEATHER
  TMP    - TEMPERATURE IN FAHRENHEIT
  DWPT   - DEWPOINT IN FAHRENHEIT
  RH     - RELATIVE HUMIDITY IN PERCENT
  WIND   - DIRECTION AND SPEED IN MPH
  PRES   - MEAN SEA LEVEL PRESSURE IN INCHES OF HG
  WCI    - WIND CHILL INDEX
  VSB    - VISIBILITY IN MILES
  HX     - HEAT INDEX
  TC     - TEMPERATURE IN CELSIUS
  VRB    - VARIABLE WIND DIRECTION
  N/A    - NOT AVAILABLE



USA.gov is the U.S. government's official web portal to all federal, state and local government web resources and services.